TimeCST,TemperatureF,Dew PointF,Humidity,Sea Level PressureIn,VisibilityMPH,Wind Direction,Wind SpeedMPH,Gust SpeedMPH,PrecipitationIn,Events,Conditions,WindDirDegrees,DateUTC
12:15 AM,28.4,26.6,93,29.81,10.0,NNW,16.1,21.9,N/A,,Overcast,330,2012-12-10 06:15:00
12:35 AM,26.6,24.8,93,29.82,10.0,NW,18.4,21.9,N/A,,Overcast,310,2012-12-10 06:35:00
12:55 AM,24.8,23.0,93,29.82,7.0,NW,17.3,26.5,N/A,,Overcast,310,2012-12-10 06:55:00
1:15 AM,23.0,21.2,93,29.83,10.0,NW,15.0,28.8,N/A,,Overcast,320,2012-12-10 07:15:00
1:35 AM,21.2,19.4,93,29.84,10.0,NW,17.3,26.5,N/A,,Overcast,310,2012-12-10 07:35:00
1:54 AM,19.4,17.6,93,29.85,10.0,NW,19.6,25.3,N/A,,Overcast,320,2012-12-10 07:54:00
2:15 AM,19.4,17.6,93,29.85,10.0,NW,17.3,24.2,N/A,,Overcast,320,2012-12-10 08:15:00
2:55 AM,17.6,15.8,93,29.86,10.0,NW,16.1,27.6,N/A,,Overcast,320,2012-12-10 08:55:00
3:15 AM,17.6,15.8,93,29.86,10.0,NW,18.4,26.5,N/A,,Overcast,320,2012-12-10 09:15:00
3:35 AM,17.6,15.8,93,29.86,10.0,NW,17.3,28.8,N/A,,Overcast,310,2012-12-10 09:35:00
3:55 AM,17.6,15.8,93,29.86,10.0,NW,20.7,25.3,N/A,,Overcast,320,2012-12-10 09:55:00
4:15 AM,15.8,14.0,93,29.86,10.0,WNW,18.4,23.0,N/A,,Overcast,300,2012-12-10 10:15:00
4:34 AM,15.8,12.2,86,29.87,10.0,NW,12.7,-,N/A,,Overcast,310,2012-12-10 10:34:00
4:55 AM,14.0,12.2,93,29.87,10.0,NW,17.3,-,N/A,,Overcast,310,2012-12-10 10:55:00
5:15 AM,14.0,12.2,93,29.88,10.0,NW,15.0,-,N/A,,Overcast,320,2012-12-10 11:15:00
5:34 AM,12.2,10.4,92,29.88,7.0,WNW,12.7,-,N/A,Snow,Light Snow,290,2012-12-10 11:34:00
5:55 AM,12.2,10.4,92,29.88,10.0,NW,15.0,-,N/A,Snow,Light Snow,310,2012-12-10 11:55:00
6:15 AM,10.4,8.6,92,29.89,7.0,NW,12.7,-,N/A,Snow,Light Snow,310,2012-12-10 12:15:00
6:35 AM,10.4,6.8,85,29.89,10.0,WNW,11.5,-,N/A,Snow,Light Snow,300,2012-12-10 12:35:00
6:55 AM,8.6,6.8,92,29.90,10.0,WNW,16.1,-,N/A,Snow,Light Snow,300,2012-12-10 12:55:00
7:15 AM,8.6,6.8,92,29.90,10.0,NW,18.4,-,N/A,,Overcast,310,2012-12-10 13:15:00
7:35 AM,8.6,6.8,92,29.90,7.0,NW,12.7,-,N/A,Snow,Light Snow,310,2012-12-10 13:35:00
7:55 AM,8.6,6.8,92,29.91,10.0,NW,13.8,-,N/A,Snow,Light Snow,310,2012-12-10 13:55:00
8:15 AM,8.6,6.8,92,29.90,7.0,NW,13.8,-,N/A,Snow,Light Snow,320,2012-12-10 14:15:00
8:35 AM,8.6,6.8,92,29.91,7.0,NW,11.5,18.4,N/A,Snow,Light Snow,310,2012-12-10 14:35:00
8:55 AM,8.6,6.8,92,29.91,10.0,WNW,12.7,-,N/A,Snow,Light Snow,300,2012-12-10 14:55:00
9:15 AM,8.6,6.8,92,29.91,10.0,WNW,11.5,-,N/A,Snow,Light Snow,300,2012-12-10 15:15:00
9:35 AM,8.6,6.8,92,29.92,10.0,NW,12.7,-,N/A,,Overcast,310,2012-12-10 15:35:00
10:15 AM,8.6,6.8,92,29.92,10.0,WNW,10.4,-,N/A,Snow,Light Snow,300,2012-12-10 16:15:00
10:35 AM,10.4,6.8,85,29.93,10.0,WNW,11.5,-,N/A,,Overcast,300,2012-12-10 16:35:00
10:55 AM,10.4,6.8,85,29.93,10.0,WNW,10.4,-,N/A,Snow,Light Snow,300,2012-12-10 16:55:00
11:15 AM,10.4,6.8,85,29.93,7.0,WNW,10.4,-,N/A,Snow,Light Snow,290,2012-12-10 17:15:00
11:35 AM,10.4,6.8,85,29.92,7.0,WNW,10.4,-,N/A,Snow,Light Snow,290,2012-12-10 17:35:00
11:54 AM,10.4,6.8,85,29.91,5.0,WNW,8.1,-,N/A,Snow,Light Snow,300,2012-12-10 17:54:00
12:15 PM,10.4,6.8,85,29.91,3.0,WNW,6.9,-,N/A,Snow,Light Snow,300,2012-12-10 18:15:00
12:35 PM,10.4,6.8,85,29.90,5.0,WNW,5.8,-,N/A,Snow,Light Snow,290,2012-12-10 18:35:00
12:55 PM,10.4,6.8,85,29.89,3.0,NW,4.6,-,N/A,Snow,Light Snow,320,2012-12-10 18:55:00
1:15 PM,10.4,6.8,85,29.89,3.0,NW,8.1,-,N/A,Snow,Light Snow,320,2012-12-10 19:15:00
1:35 PM,10.4,6.8,85,29.89,2.5,NW,5.8,-,N/A,Snow,Light Snow,310,2012-12-10 19:35:00
1:55 PM,10.4,8.6,92,29.89,5.0,West,3.5,-,N/A,Snow,Light Snow,270,2012-12-10 19:55:00
2:15 PM,12.2,8.6,85,29.88,7.0,WNW,5.8,-,N/A,Snow,Light Snow,290,2012-12-10 20:15:00
2:35 PM,12.2,8.6,85,29.88,10.0,WNW,5.8,-,N/A,,Overcast,300,2012-12-10 20:35:00
2:55 PM,12.2,6.8,79,29.88,10.0,West,5.8,-,N/A,,Scattered Clouds,280,2012-12-10 20:55:00
3:15 PM,12.2,8.6,85,29.88,10.0,West,4.6,-,N/A,,Mostly Cloudy,270,2012-12-10 21:15:00
3:35 PM,12.2,8.6,85,29.89,10.0,West,6.9,-,N/A,,Scattered Clouds,280,2012-12-10 21:35:00
3:55 PM,10.4,6.8,85,29.89,10.0,West,4.6,-,N/A,,Clear,270,2012-12-10 21:55:00
4:15 PM,10.4,6.8,85,29.89,10.0,WSW,4.6,-,N/A,,Clear,250,2012-12-10 22:15:00
4:35 PM,8.6,5.0,85,29.89,10.0,Calm,Calm,-,N/A,,Clear,0,2012-12-10 22:35:00
4:55 PM,8.6,5.0,85,29.89,10.0,West,3.5,-,N/A,,Clear,270,2012-12-10 22:55:00
5:15 PM,8.6,5.0,85,29.90,10.0,Calm,Calm,-,N/A,,Clear,0,2012-12-10 23:15:00
5:35 PM,8.6,5.0,85,29.90,10.0,Calm,Calm,-,N/A,,Clear,0,2012-12-10 23:35:00
5:55 PM,6.8,3.2,85,29.91,10.0,Calm,Calm,-,N/A,,Clear,0,2012-12-10 23:55:00
6:15 PM,6.8,3.2,85,29.90,10.0,Calm,Calm,-,N/A,,Clear,0,2012-12-11 00:15:00
6:35 PM,5.0,3.2,92,29.90,10.0,Calm,Calm,-,N/A,,Clear,0,2012-12-11 00:35:00
6:55 PM,5.0,1.4,85,29.90,10.0,Calm,Calm,-,N/A,,Clear,0,2012-12-11 00:55:00
7:15 PM,3.2,1.4,92,29.90,10.0,Calm,Calm,-,N/A,,Clear,0,2012-12-11 01:15:00
7:35 PM,5.0,1.4,85,29.89,10.0,Calm,Calm,-,N/A,,Clear,0,2012-12-11 01:35:00
7:55 PM,3.2,1.4,92,29.89,10.0,Calm,Calm,-,N/A,,Clear,0,2012-12-11 01:55:00
8:15 PM,3.2,1.4,92,29.89,10.0,Calm,Calm,-,N/A,,Clear,0,2012-12-11 02:15:00
8:35 PM,3.2,-0.4,85,29.89,10.0,SE,4.6,-,N/A,,Clear,140,2012-12-11 02:35:00
8:55 PM,1.4,-0.4,92,29.89,10.0,Calm,Calm,-,N/A,,Clear,0,2012-12-11 02:55:00
9:15 PM,6.8,3.2,85,29.89,10.0,Calm,Calm,-,N/A,,Clear,0,2012-12-11 03:15:00
9:35 PM,5.0,3.2,92,29.88,10.0,Calm,Calm,-,N/A,,Clear,0,2012-12-11 03:35:00
9:55 PM,6.8,3.2,85,29.88,10.0,SSE,3.5,-,N/A,,Clear,160,2012-12-11 03:55:00
10:15 PM,6.8,3.2,85,29.87,10.0,SSE,3.5,-,N/A,,Clear,160,2012-12-11 04:15:00
10:35 PM,6.8,5.0,92,29.87,10.0,SSE,3.5,-,N/A,,Clear,160,2012-12-11 04:35:00
10:55 PM,6.8,5.0,92,29.87,10.0,SSE,4.6,-,N/A,,Clear,160,2012-12-11 04:55:00
11:15 PM,8.6,6.8,92,29.87,10.0,SSE,4.6,-,N/A,,Scattered Clouds,160,2012-12-11 05:15:00
11:35 PM,8.6,6.8,92,29.86,10.0,SSE,4.6,-,N/A,,Scattered Clouds,150,2012-12-11 05:35:00
11:55 PM,8.6,6.8,92,29.86,10.0,SSE,5.8,-,N/A,,Scattered Clouds,160,2012-12-11 05:55:00